Location: Ford County Road and Bridge Department
(37.7686°N, 99.9762°W)
Time: 17:55:31
(UTC+00:00)

CZ-4C R/B - Pass Details

Date: 18 January 2020
Orbit: 644 x 1358 km, 63.4° (Epoch: 23 February)

Event Time Altitude Azimuth Distance (km) Brightness Sun altitude
Rises 01:42:28 0° 327° (NNW) 3,922 6.0 -22.6°
Reaches altitude 10° 01:45:00 10° 327° (NNW) 3,053 5.4 -23.1°
Maximum altitude 01:52:32 90° 301° (WNW) 1,278 3.0 -24.5°
Drops below altitude 10° 02:00:57 10° 150° (SSE) 3,388 5.1 -26.2°
Enters shadow 02:02:35 - 150° (SSE) 3,937 5.4 -26.5°
